Regional Weather Roundup
Issued by NWS Wakefield, VA

Home | Current Version | Previous Version | Text Only | Print | Product List | Glossary On
Versions: 1 2 3 4 5 6 7 8 9 10 11 12 13 14 15 16 17 18 19 20 21 22 23 24 25 26 27 28 29 30 31 32 33 34 35 36 37 38 39 40 41 42 43 44 45 46 47 48 49 50
000
ASUS41 KAKQ 280515
RWRAKQ

REGIONAL WEATHER ROUNDUP
NATIONAL WEATHER SERVICE WAKEFIELD VA
100 AM EDT TUE JUL 28 2015

Note: "fair" indicates few or no clouds below 12,000 feet with no
significant weather and/or obstructions to visibility. * = Denotes
station may not report precipitation (e.g., rain,snow,etc.),
thunder or fog.

VAZ042-051-052>054-056-280600-
NORTHERN VIRGINIA

CITY           SKY/WX    TMP DP  RH WIND       PRES   REMARKS
WASH NATIONAL  PTCLDY    78  72  81 S5        30.02R
DULLES         PTCLDY    72  70  93 CALM      30.02S
FORT BELVOIR   CLEAR     72  70  93 S1        30.01S
QUANTICO       CLEAR     75  67  76 W3        30.02S
FREDERICKSBRG* CLEAR     74  70  88 CALM      30.01S
STAFFORD*      CLOUDY    71  67  88 CALM      30.06S
WARRENTON      CLEAR     71  70  98 CALM      30.02S
CULPEPER*      CLEAR     70  69  96 CALM      30.03S
MANASSAS*      CLEAR     73  73 100 S3        30.02S
LEESBURG*      CLEAR     73  73 100 CALM      30.03S
WINCHESTER     CLEAR     72  70  94 CALM      30.03S
FRONT ROYAL*   MOCLDY    70  70 100 CALM      30.03S VSB 1
LURAY*         FAIR      70  70 100 W3        30.04S
$$

VAZ048-049-060>072-079>083-280600-
CENTRAL AND SOUTH CENTRAL VIRGINIA

CITY           SKY/WX    TMP DP  RH WIND       PRES   REMARKS
RICHMOND       CLOUDY    77  72  84 SE5       30.01S
CHESTERFIELD*  FAIR      75  63  64 S5        30.03R
PETERSBURG*    CLEAR     75  75 100 CALM      30.02F
HANOVER        CLOUDY    70  70 100 CALM      30.03S FOG
TAPPAHANNOCK*  PTCLDY    70  67  89 CALM      30.02S
QUINTON*       MOCLDY    75  72  91 S5        30.01S
CHARLOTTSVILLE MOCLDY    71  70  96 CALM      30.03S FOG
GORDONSVILLE*  CLOUDY    70  70 100 CALM      30.02S
ORANGE*        PTCLDY    72  70  94 CALM      30.04R
LOUISA*        MOCLDY    72  70  94 CALM      30.01F FOG
BUMPASS*       CLOUDY    69  68  98 CALM      30.02F
FARMVILLE*     HVY RAIN  76  76 100 S8        30.01S
CREWE*         FAIR     N/A N/A N/A CALM      30.02R
FORT PICKETT*  FAIR      74  72  93 S8        30.02S
CHASE CITY*    FAIR      78  76  94 CALM      30.02S
CLARKSVILLE*   MOCLDY    75  72  88 S5        30.01S
SOUTH HILL*    PTCLDY    73  70  88 S6        30.08S
LAWRENCEVILLE* FAIR      73  72  94 S3        30.02S
EMPORIA*       CLEAR     72  70  94 CALM      30.03F
$$

VAZ088>098-280600-
SOUTHEAST VIRGINIA

CITY           SKY/WX    TMP DP  RH WIND       PRES   REMARKS
NORFOLK        PTCLDY    77  69  76 S6        30.02S
VIRGINIA BEACH MOCLDY    79  69  71 S5        30.01S
NORFOLK NAVAL  PTCLDY    77  70  79 S5        30.03S
WEST POINT*    MOCLDY    75  73  91 CALM      30.03S
SALUDA*        FAIR      73  73  99 SE5       30.01S
NEWPORT NEWS   PTCLDY    78  72  81 S8        30.02S
LANGLEY AFB    MOCLDY    78  71  78 SW7       30.02S
FORT EUSTIS    PTCLDY    78  78 100 S8        30.00S
WILLIAMSBURG*  CLEAR     81  73  78 S7        30.03S
HR EXEC AP*    FAIR      72  68  88 CALM      30.05S
FRANKLIN*      CLEAR     74  71  91 CALM      30.03S
WAKEFIELD      CLEAR     75  71  87 CALM      30.02S
$$

VAZ020-022-025-037-045-280600-
WEST CENTRAL AND SOUTHWEST VIRGINIA

CITY           SKY/WX    TMP DP  RH WIND       PRES   REMARKS
STAUNTON*      MOCLDY    73  69  88 CALM      30.08S
WAYNESBORO*    MOCLDY    69  69 100 CALM      30.07S
HOT SPRINGS VA CLOUDY    70  70 100 S3        30.17S FOG
LYNCHBURG      TSTM      72  72 100 VRB5      30.05S FOG
DANVILLE       LGT RAIN  75  73  93 CALM      30.02S
SOUTH BOSTON*  CLOUDY    76  71  82 CALM      30.02R
MARTINSVILLE   CLOUDY    72  72 100 CALM      30.05F
ROANOKE        PTCLDY    75  71  87 NE12      30.07R
BLACKSBURG     CLOUDY    70  69  96 CALM      30.13R
DUBLIN*          N/A     70  70 100 E3        30.11R FOG
MARION*        CLEAR     69  67  94 CALM      30.14F
HILLSVILLE*    PTCLDY    71  68  89 S3        30.12R
RICHLANDS*     FAIR      71  68  89 CALM      30.12S
WISE*          MOCLDY    72  72 100 CALM      30.13F FOG
ABINGDON*      CLEAR     71  69  93 CALM      30.09S
$$

MDZ021>025-VAZ099-100-280600-
SOUTHERN MARYLAND AND THE DELMARVA PENINSULA

CITY           SKY/WX    TMP DP  RH WIND       PRES   REMARKS
PATUXENT RIVER CLEAR     72  69  90 SW5       30.00F
BAY BRIDGE APT   N/A     77  73  88 CALM      30.01S
LEONARDTOWN    CLEAR     70  68  94 CALM      30.03F
DOVER          PTCLDY    73  73 100 S3        30.00S
GEORGETOWN     PTCLDY    73  71  93 SW3       30.02S
EASTON         CLEAR     75  75 100 CALM      30.05S
CAMBRIDGE      CLEAR     77  72  83 CALM      30.01S
SALISBURY      PTCLDY    72  71  97 CALM      30.02R
OCEAN CITY     CLEAR     77  72  84 SW6       30.02S
WALLOPS ISLAND MOCLDY    77  74  90 SW8       30.02S
ACCOMACK*      CLEAR     73  64  73 S6        30.02S
$$

NCZ012>017-030>032-280600-
NORTH CENTRAL AND EASTERN NORTH CAROLINA

CITY           SKY/WX    TMP DP  RH WIND       PRES   REMARKS
ROANOKE RAPIDS FAIR      72  70  94 CALM      30.02S
RALEIGH        MOCLDY    78  70  76 S5        30.02S
ELIZABETH CITY PTCLDY    73  70  90 CALM      30.03S
AHOSKIE*       CLEAR     71  69  93 CALM      30.03S
EDENTON*       CLEAR     75  71  87 SE3       30.03S
CURRITUCK*     MOCLDY    74  70  86 CALM      30.03F
KILL DEVIL HLS CLEAR     75  68  77 CALM      30.02S
MANTEO         CLEAR     76  68  78 S3        30.03S
CAPE HATTERAS  CLEAR     76  69  79 E5        30.03R
TARBORO*         N/A     72  70  94 CALM      30.03S
GOLDSBORO      CLEAR     74  71  92 CALM      30.00S
WASHINGTON     CLEAR     73  70  92 CALM      30.03S
GREENVILLE     CLEAR     72  72 100 CALM      30.04S
NEW BERN       CLEAR     73  70  90 CALM      30.03S
WILMINGTON     CLEAR     73  71  93 N3        29.99F
$$

VAZ048-280600-
ELSEWHERE

CITY           SKY/WX    TMP DP  RH WIND       PRES   REMARKS
HARRISBURG PA  MOCLDY    75  71  87 E5        30.02S
BALTIMORE      PTCLDY    74  73  97 CALM      30.01S
ANNAPOLIS      CLEAR     78  71  79 CALM      30.01R
ANDREWS AFB    CLEAR     74  73  95 SW5       30.01S FOG
PHILADELPHIA   PTCLDY    77  71  82 S6        30.02S
HENDERSON NC   CLEAR     75  68  79 S6        30.03R
GREENSBORO     MOCLDY    72  70  93 S3        30.04R
ROCKY MOUNT    PTCLDY    73  71  93 SE3       30.02S
$$

VAZ100-280600-
MARINE

STATION/POSITION TIME  TEMP    WIND        PRES    WAVE   SWELL
                       AIR SEA DIR/SP/G            HT/PER HT/PER
                 (UTC) (F)     (DEG/KT/KT) (MB)    (FT/S) (FT/S)
BRANDYWINE LGT   0400   75 76  180/  6/  7 1016.7R
CAPE MAY NJ      0400   75 80  180/  4/  6 1016.2S
LEWES DE         0400   76 72  200/  5/  6 1016.3S
15NM E FENWICK I 0450   78 78  190/ 10/ 10 1016.7F   2/11   2/11
OCEAN-CITY-INLET 0400   76 76  210/  7/  8 1015.8R
WACHAPREAGUE VA  0400   79 83  210/  6/  9 1016.5S
GOOSES REEF MD   0500   78 80  250/  8/ 10 1017.1R
COVE POINT MD    0400   76     230/  8/ 10 1016.9R
SOLOMONS ISLAND  0400      82                N/A
BISHOPS HEAD MD  0400   80 81  180/  9/ 10 1015.2F
POTOMAC MD       0500   79 82  230/  4/  4 1015.1F   1/ 3
CAMBRIDGE MD     0400   77 83  140/  2/  4 1015.3R
LEWISETTA VA     0400   76 81  210/  2/  3 1015.9S
RAPPAHANNOCK LGT 0400          170/ 13/ 14 1016.7R
STINGRAY PT      0500   81 82  200/ 12/ 14 1016.2F   1/ 3
YORK RVR RNG VA  0400   81     200/ 10/ 11 1015.7S
YORKTOWN VA      0400   79 83  200/  4/  5 1016.0R
JAMESTOWN VA     0500   78 84  170/  8/ 12   N/A
DOMINION TERM VA 0400   80     170/ 10/ 12 1016.1S
KIPTOPEKE VA     0400      87  200/ 12/ 14   N/A
CHES BAY BRIDGE  0400   80 81  170/ 10/ 12 1015.9F
CAPE HENRY VA    0400   77     180/  5/  6   N/A
CHESAPEAKE LGHT  0400   80     180/ 13/ 15 1016.9S
WILLOUBY STN VA  0400   80     200/ 10/ 12 1017.2F
CAPE HENRY BUOY  0428      81                N/A     3/11   2/11
1ST LANDING BUOY 0500      80              1016.2S   1/ 4
CAPE CHARLES BUO 0426      80                N/A     3/12   2/12
OFFSHORE WE BUOY 0411      81                N/A     3/11   2/11
64NM E OF VA BCH 0450   80 80  180/  8/ 10 1016.6S   3/ 6   3/ 6
DUCK PIER NC     0400   79 75  160/  6/  8 1015.8R
44100 DUCK FRF   0424      81                N/A     2/ 6   2/11
44056 DUCK FRF   0411      80                N/A     2/11   2/11
OREGON INLET NC  0400   77 81  140/  3/  4 1016.7R
HATTERAS NC      0400   80 83  110/  5/  7 1016.2R
CAPE LOOKOUT NC  0500   80     120/  9/ 10 1015.5F
$$


USA.gov is the U.S. government's official web portal to all federal, state and local government web resources and services.